Weather History for Glasgow, MT

Change the Weather History Date:

Saturday, November 16, 2013

  Actual Average Record
Temperature  
Mean Temperature 38 °F 29 °F  
Max Temperature 43 °F 39 °F 69 °F (1939)
Min Temperature 32 °F 19 °F -18 °F (1959)
Degree Days  
Heating Degree Days 27 36  
Month to date heating degree days 499 509  
Since 1 July heating degree days 1304 1433  
Cooling Degree Days 0 0  
Month to date cooling degree days 0 0  
Year to date cooling degree days 563 533  
Moisture  
Dew Point 31 °F    
Average Humidity 78    
Maximum Humidity 96    
Minimum Humidity 60    
Precipitation  
Precipitation T in 0.02 in 0.21 in (1900)
Month to date precipitation 0.21 0.23  
Year to date precipitation 14.87 11.09  
Snow  
Snow T in 0.20 in 1.50 in (1958)
Month to date snowfall 1.2 2.3  
Since 1 July snowfall 1.3 3.8  
Since 1 September snowfall 1.3 3.8  
Snow Depth 0.00 in    
Sea Level Pressure  
Sea Level Pressure 29.34 in    
Wind  
Wind Speed 5 mph (SSW)    
Max Wind Speed 8 mph    
Max Gust Speed 11 mph    
Visibility 10 miles    
Events      
T = Trace of Precipitation, MM = Missing Value Source: NWS Daily Summary

Daily Weather History Graph

Daily Weather History Graph

Search for Another Location

Airport:

Trip Planner

Search our weather history database for the weather conditions in past years. The results will help you decide how hot, cold, wet, or windy it might be!

Date:

Astronomy

Nov. 16, 2013 Rise Set
Actual Time 7:15 AM MST 4:26 PM MST
Civil Twilight 6:41 AM MST 5:00 PM MST
Nautical Twilight 6:03 AM MST 5:38 PM MST
Astronomical Twilight 5:26 AM MST 6:15 PM MST
Moon 4:06 PM MST (11/16) 6:10 AM MST (11/16)
Length of Visible Light 10h 19m
Length of Day
9h 11m
Waxing Gibbous, 99% of the Moon is Illuminated
Nov 16
Waxing Gibbous
Nov 17
Full
Nov 25
Last Quarter
Dec 2
New
Dec 9
First Quarter

Hourly Weather History & Observations

Time (MST) Temp. Windchill Dew Point Humidity Pressure Visibility Wind Dir Wind Speed Gust Speed Precip Events Conditions
12:53 AM 35.1 °F 31.0 °F 33.1 °F 92% 29.34 in 10.0 mi West 4.6 mph - N/A   Overcast
1:53 AM 34.0 °F 31.0 °F 30.9 °F 89% 29.33 in 10.0 mi West 3.5 mph - 0.00 in   Scattered Clouds
2:53 AM 34.0 °F 28.8 °F 32.0 °F 92% 29.32 in 10.0 mi SSW 5.8 mph - N/A   Overcast
3:53 AM 33.1 °F 27.7 °F 32.0 °F 96% 29.31 in 10.0 mi South 5.8 mph - N/A   Overcast
4:53 AM 34.0 °F 28.8 °F 30.9 °F 89% 29.31 in 10.0 mi South 5.8 mph - N/A   Overcast
5:53 AM 34.0 °F 28.8 °F 30.9 °F 89% 29.29 in 10.0 mi SE 5.8 mph - N/A   Overcast
6:53 AM 32.0 °F 25.6 °F 30.9 °F 96% 29.30 in 10.0 mi East 6.9 mph - N/A   Mostly Cloudy
7:53 AM 33.1 °F 26.9 °F 30.9 °F 92% 29.30 in 10.0 mi East 6.9 mph - N/A   Overcast
8:53 AM 36.0 °F 30.3 °F 33.1 °F 89% 29.29 in 10.0 mi ESE 6.9 mph - N/A   Overcast
9:53 AM 37.9 °F 32.7 °F 34.0 °F 86% 29.29 in 10.0 mi SE 6.9 mph - N/A   Overcast
10:53 AM 39.0 °F 34.0 °F 34.0 °F 82% 29.29 in 10.0 mi SSE 6.9 mph - N/A   Overcast
11:53 AM 41.0 °F 36.4 °F 32.0 °F 70% 29.28 in 10.0 mi SSE 6.9 mph - N/A   Overcast
12:53 PM 42.1 °F 40.2 °F 30.0 °F 62% 29.28 in 10.0 mi SW 3.5 mph - N/A   Overcast
1:53 PM 43.0 °F 41.3 °F 30.0 °F 60% 29.28 in 10.0 mi NW 3.5 mph - N/A   Overcast
2:53 PM 42.1 °F 39.2 °F 30.0 °F 62% 29.29 in 10.0 mi West 4.6 mph - N/A   Overcast
3:53 PM 41.0 °F - 28.9 °F 62% 29.31 in 10.0 mi Calm Calm - N/A   Overcast
4:53 PM 39.9 °F 37.8 °F 28.0 °F 63% 29.33 in 10.0 mi NW 3.5 mph - N/A   Overcast
5:53 PM 39.0 °F 35.7 °F 28.0 °F 65% 29.35 in 10.0 mi Variable 4.6 mph - N/A   Overcast
6:53 PM 37.0 °F 34.5 °F 28.9 °F 73% 29.38 in 10.0 mi WNW 3.5 mph - N/A   Overcast
7:53 PM 36.0 °F 32.1 °F 30.0 °F 79% 29.39 in 10.0 mi NNE 4.6 mph - N/A   Overcast
8:53 PM 34.0 °F 28.8 °F 30.0 °F 85% 29.42 in 10.0 mi ENE 5.8 mph - N/A   Overcast
9:36 PM 35.1 °F - 30.9 °F 85% 29.37 in 10.0 mi Calm Calm - 0.00 in   Overcast
9:51 PM 33.8 °F 30.8 °F 30.2 °F 87% 29.37 in 10.0 mi North 3.5 mph - 0.00 in   Overcast
9:53 PM 34.0 °F 31.0 °F 30.9 °F 89% 29.44 in 10.0 mi North 3.5 mph - 0.00 in   Overcast
10:53 PM 34.0 °F - 30.9 °F 89% 29.45 in 10.0 mi Calm Calm - 0.00 in   Overcast
11:28 PM 34.0 °F - 30.9 °F 89% 29.41 in 10.0 mi Calm Calm - N/A   Overcast
11:53 PM 33.1 °F 27.7 °F 32.0 °F 96% 29.48 in 9.0 mi West 5.8 mph - 0.00 in   Overcast